Flag for USA

Past Weather in Norwalk, California, USA — Yesterday and Last 2 Weeks

Now
81 °F

Sunny.


Feels Like: 82 °F
Forecast: 88 / 65 °F
Wind: 5 mph from South

Location: Fullerton Municipal Airport
Current Time: Sep 19, 2020 at 11:21:23 am
Latest Report: Sep 19, 2020 at 10:53 am
Visibility: 10 mi
Pressure29.86 "Hg
Humidity: 51%
Dew Point: 61 °F
Location of NorwalkLocation

Past Weather in Norwalk — Graph

°F

Norwalk Temperature Yesterday

Maximum temperature yesterday: 96 °F (at 1:53 pm)
Minimum temperature yesterday: 67 °F (at 6:53 am)
Average temperature yesterday: 80 °F

High & Low Weather Summary for the Past Weeks

 TemperatureHumidityPressure
High108 °F (Sep 5, 2:53 pm)86% (Sep 10, 5:53 am)30.03 "Hg (Sep 10, 5:53 am)
Low60 °F (Sep 12, 6:53 am)11% (Sep 17, 2:53 pm)29.65 "Hg (Sep 8, 3:53 pm)
Average77 °F52%29.86 "Hg
* Reported Sep 4 9:53 am — Sep 19 9:53 am, Norwalk. Weather by CustomWeather, © 2020

Note: Actual official high and low records may vary slightly from our data, if they occured in-between our weather recording intervals... More about our weather records

Norwalk Weather History for the Previous 24 Hours

Scroll right to see more
 ConditionsComfort  
Time TempWeatherWind HumidityBarometerVisibility
9:53 am
Sat, Sep 19
78 °FSunny.7 mph56%29.87 "Hg10 mi
8:53 am74 °FSunny.6 mph64%29.87 "Hg10 mi
7:53 am72 °FSunny.7 mph66%29.86 "Hg10 mi
6:53 am69 °FSunny.7 mph66%29.85 "Hg10 mi
5:53 am70 °FClear.3 mph66%29.84 "Hg10 mi
4:53 am71 °FClear.No wind61%29.83 "Hg10 mi
3:53 am72 °FClear.No wind59%29.82 "Hg10 mi
2:53 am73 °FClear.3 mph57%29.83 "Hg10 mi
1:53 am73 °FClear.No wind57%29.84 "Hg10 mi
12:53 am73 °FClear.No wind59%29.84 "Hg10 mi
11:53 pm
Fri, Sep 18
75 °FClear.No wind55%29.84 "Hg10 mi
10:53 pm76 °FClear.No wind54%29.85 "Hg10 mi
9:53 pm78 °FClear.No wind48%29.83 "Hg10 mi
8:53 pm79 °FClear.3 mph47%29.83 "Hg10 mi
7:53 pm81 °FClear.No wind44%29.81 "Hg10 mi
6:53 pm85 °FClear.6 mph34%29.80 "Hg10 mi
5:53 pm89 °FSunny.3 mph23%29.79 "Hg10 mi
4:53 pm94 °FSunny.8 mph25%29.79 "Hg10 mi
3:53 pm95 °FSunny.5 mph19%29.79 "Hg10 mi
2:53 pm93 °FSunny.8 mph26%29.81 "Hg10 mi
1:53 pm96 °FSunny.5 mph19%29.83 "Hg10 mi
12:53 pm92 °FSunny.No wind30%29.85 "Hg10 mi
11:53 am89 °FSunny.6 mph30%29.87 "Hg10 mi
Weather by CustomWeather, © 2020

See weather overview